This demonstration page uses our WeatherBlox Daily Observations layout. Learn more.

Left ArrowRight Arrow

41.86663, -103.66717

Hourly Observations for February 1, 2019

Temp ( °F °C ) Dew Point ( °F °C ) Humidity (%) Winds ( mph kmh ) Pressure ( in mb ) Visibility ( mi km ) Precip ( " mm )
12:53 am 00:53 Clear 24 -4.4 17 -8.3 75 75 NNE 6 9 29.96 1015 10 16 N/A
1:53 am 01:53 Clear 21 -6.1 16 -8.9 81 81 VRB 5 7 29.97 1015 10 16 N/A
2:53 am 02:53 Clear 22 -5.6 17 -8.3 82 82 ENE 6 9 29.96 1015 10 16 N/A
3:53 am 03:53 Clear 22 -5.6 17 -8.3 82 82 NE 6 9 29.96 1014 10 16 N/A
4:53 am 04:53 Clear 20 -6.7 16 -8.9 85 85 N N/A 29.99 1016 10 16 N/A
5:53 am 05:53 Clear 21 -6.1 16 -8.9 81 81 N N/A 30.01 1016 10 16 N/A
6:53 am 06:53 Clear 21 -6.1 15 -9.4 78 78 N N/A 30.05 1018 10 16 N/A
7:53 am 07:53 Sunny 26 -3.3 20 -6.7 78 78 N N/A 30.05 1018 10 16 N/A
8:53 am 08:53 Sunny 38 3.3 23 -5 55 55 N N/A 30.03 1017 10 16 N/A
9:53 am 09:53 Sunny 46 7.8 24 -4.4 42 42 N N/A 30.01 1016 10 16 N/A
10:53 am 10:53 Sunny 55 12.8 25 -3.9 31 31 W 9 15 29.98 1015 10 16 N/A
11:53 am 11:53 Sunny 60 15.6 23 -5 24 24 W 14 22 29.94 1014 10 16 N/A
12:53 pm 12:53 Sunny 62 16.7 22 -5.6 21 21 W 14 22 29.91 1013 10 16 N/A
1:53 pm 13:53 Sunny 63 17.2 21 -6.1 20 20 WNW 20 31 29.89 1012 10 16 N/A
2:53 pm 14:53 Sunny 62 16.7 22 -5.6 21 21 WNW 17 28 29.89 1012 10 16 N/A
3:53 pm 15:53 Sunny 61 16.1 22 -5.6 22 22 W 13 20 29.90 1012 10 16 N/A
4:53 pm 16:53 Sunny 54 12.2 23 -5 30 30 W 9 15 29.92 1013 10 16 N/A
5:53 pm 17:53 Clear 49 9.4 22 -5.6 35 35 W 10 17 29.94 1014 10 16 N/A
6:53 pm 18:53 Clear 47 8.3 22 -5.6 37 37 W 12 19 29.96 1014 10 16 N/A
7:53 pm 19:53 Clear 37 2.8 20 -6.7 50 50 N 3 6 29.97 1015 10 16 N/A
8:53 pm 20:53 Clear 34 1.1 21 -6.1 59 59 N 7 11 29.95 1014 10 16 N/A
9:53 pm 21:53 Clear 34 1.1 22 -5.6 61 61 N 5 7 29.92 1013 10 16 N/A
10:53 pm 22:53 Clear 32 undefined 22 -5.6 66 66 N 5 7 29.88 1012 10 16 N/A
11:53 pm 23:53 Clear 26 -3.3 20 -6.7 78 78 N 5 7 29.88 1012 10 16 N/A

Powered by AerisWeather